Hanamaki current weather conditions

sailwx.info

Wind from 330 at 5 knots

Air temperature -1.0° C
Visibility: greater than 5.4 NM
Dewpoint -8.0° C

Last reported at 2020-Jan-25 10:00 UTC.
Time now 2020-Jan-25 14:53 UTC

Location: N 39°26' E 141°08'.
View on Google Maps.

See reports from other nearby stations

  
Tides and Currents Weather Stations Pressure Air Temp Water Temp Dewpoint Dewpoint Depression Visibility Wind Speed Wind Dir Waves Ship Positions
date/time (UTC)wind fromknots sea level pressurealtimeterstation pressurevisibilityair tempwater tempwave heightnotes
2020-Jan-25 10:00 330 5 5.4-1.0
2020-Jan-25 09:00 300 5 5.4-1.0
2020-Jan-25 08:00 300 8 5.4-0.0
2020-Jan-25 07:00 290 11 5.4-0.0
2020-Jan-25 06:00 290 13 5.4 1.0
2020-Jan-25 05:00 290 13 5.4 2.0
2020-Jan-25 04:00 290 13 gusting 25 5.4 2.0
2020-Jan-25 03:00 280 12 gusting 21 5.4 2.0
2020-Jan-25 02:00 280 13 5.4 2.0
2020-Jan-25 01:00 310 9 5.4 2.0
2020-Jan-25 00:06 300 12 gusting 21 5.4 1.0
2020-Jan-25 00:00 5.4 1.0
2020-Jan-24 23:36 050 6 5.4-0.0
2020-Jan-24 23:33 310 9 5.4-0.0
2020-Jan-24 23:00 070 6 5.4-1.0
2020-Jan-24 22:40 070 2 5.4-2.0
2020-Jan-24 10:00 5.4-0.0
2020-Jan-24 09:00 330 7 gusting 20 5.4-0.0
2020-Jan-24 08:00 280 12 gusting 27 5.4 1.0
2020-Jan-24 07:00 280 14 gusting 29 5.4 3.0 Showers in the vicinity.
2020-Jan-24 06:00 300 6 5.4 5.0 Light rain showers.
2020-Jan-24 05:00 310 7 5.4 7.0 Showers in the vicinity.
2020-Jan-24 04:00 280 7 5.4 7.0 Light rain showers.
2020-Jan-24 03:00 120 2 5.4 5.0
2020-Jan-24 02:00 5.4 3.0
2020-Jan-24 01:00 5.4 1.0
2020-Jan-24 00:00 030 2 5.4-2.0
2020-Jan-23 23:39 340 2 4.3-3.0
2020-Jan-23 23:24 340 4 1.6-3.0 Mist.
2020-Jan-23 23:21 350 4 1.1-4.0 Mist.
2020-Jan-23 23:00 020 4 0.4-4.0 Fog.
2020-Jan-23 22:40 0.2-4.0 Fog.